Temperature
9 9 8 8 8 8 7 7 6 6 6 6 6 5 5 4 4 4 3 3 2 2 1 0 -0 -1 -1 -1 -2 -2 -2 -2 -2 -3 -3 -3 -2 -2
9 9 8 8 8 7 7 7 6 6 5 5 5 5 4 4 3 3 3 2 2 1 0 -0 -1 -1 -2 -2 -2 -3 -3 -3 -3 -3 -3 -3 -3 -3
9 9 8 8 8 7 7 7 6 6 5 5 5 4 4 3 3 2 2 2 1 0 -0 -1 -2 -2 -3 -3 -3 -3 -3 -3 -4 -4 -4 -4 -4 -4
9 9 8 8 7 7 7 6 6 6 5 5 4 4 3 3 2 2 1 1 0 -0 -1 -1 -2 -3 -3 -3 -3 -4 -4 -4 -4 -5 -5 -5 -5 -5
9 8 8 8 7 7 7 6 6 5 5 4 4 3 3 2 2 2 1 0 -0 -1 -1 -2 -2 -3 -3 -3 -4 -4 -4 -5 -5 -5 -6 -5 -5 -5
9 8 8 8 7 7 7 6 6 5 4 4 3 3 2 2 1 1 1 -0 -1 -1 -2 -3 -3 -3 -3 -4 -4 -5 -5 -6 -6 -6 -6 -6 -6 -6
8 8 8 7 7 7 6 6 5 5 4 3 3 2 2 1 1 -0 -1 -1 -1 -2 -2 -3 -3 -4 -4 -4 -5 -5 -6 -6 -7 -7 -6 -6 -6 -6
8 8 7 7 7 6 6 5 5 4 3 3 2 2 1 0 -0 -1 -2 -2 -3 -3 -3 -3 -4 -4 -4 -5 -5 -6 -7 -7 -7 -7 -7 -7 -7 -7
8 8 7 7 6 6 5 5 4 3 3 2 2 1 -0 -1 -1 -2 -2 -3 -3 -4 -4 -3 -4 -4 -5 -5 -6 -7 -7 -7 -8 -8 -8 -8 -8 -8
8 7 7 6 6 5 5 4 4 3 2 2 1 0 -0 -1 -2 -2 -3 -3 -3 -4 -5 -5 -5 -5 -5 -5 -6 -7 -7 -8 -8 -8 -8 -8 -8 -8
7 7 6 6 5 5 4 4 3 3 2 1 0 -0 -1 -2 -2 -3 -3 -3 -4 -4 -5 -6 -6 -6 -5 -5 -6 -7 -8 -8 -8 -8 -8 -8 -8 -8
7 6 6 5 5 4 4 3 3 2 1 1 -0 -1 -1 -2 -3 -3 -4 -5 -5 -6 -6 -7 -7 -7 -7 -6 -6 -7 -8 -8 -8 -8 -8 -8 -8 -8
7 6 5 5 4 4 3 3 2 1 1 -0 -1 -1 -2 -2 -3 -4 -4 -5 -6 -7 -7 -8 -8 -8 -9 -8 -6 -7 -8 -8 -8 -8 -8 -8 -8 -8
6 6 5 5 4 3 3 2 1 1 0 -0 -1 -2 -2 -3 -3 -4 -5 -6 -6 -7 -7 -8 -8 -8 -9 -9 -8 -7 -7 -8 -8 -8 -8 -8 -8 -8
6 5 5 4 3 3 2 2 1 0 -0 -1 -1 -2 -3 -3 -4 -4 -5 -6 -6 -7 -7 -8 -8 -8 -8 -9 -9 -8 -8 -8 -8 -8 -8 -8 -8 -8
5 5 4 3 3 2 2 1 0 -0 -1 -1 -2 -3 -3 -4 -4 -5 -5 -6 -6 -6 -7 -8 -8 -8 -8 -8 -8 -9 -9 -9 -9 -8 -8 -8 -8 -8
5 4 4 3 2 2 1 1 -0 -1 -1 -2 -2 -3 -4 -4 -5 -5 -6 -6 -7 -7 -7 -7 -7 -8 -8 -8 -8 -9 -9 -9 -9 -8 -8 -7 -7 -8
4 4 3 3 2 2 1 0 -0 -1 -2 -2 -3 -4 -4 -5 -5 -6 -6 -7 -7 -7 -8 -8 -8 -7 -7 -8 -8 -9 -9 -9 -8 -8 -8 -8 -7 -7
4 4 3 3 2 1 1 -0 -1 -2 -2 -3 -3 -4 -4 -5 -6 -6 -7 -7 -7 -8 -8 -8 -9 -9 -9 -9 -8 -9 -9 -9 -8 -8 -8 -8 -8 -7
4 3 3 2 2 1 0 -0 -1 -2 -3 -3 -4 -4 -5 -5 -6 -6 -7 -7 -8 -8 -8 -9 -9 -9 -10 -10 -9 -9 -9 -9 -9 -8 -8 -7 -7 -7
4 3 2 2 1 1 -0 -1 -2 -2 -3 -3 -4 -5 -5 -6 -6 -7 -7 -8 -8 -8 -8 -9 -9 -9 -9 -9 -9 -9 -8 -9 -9 -9 -8 -8 -7 -7
3 3 2 2 1 0 -0 -1 -2 -3 -3 -4 -4 -5 -5 -6 -7 -7 -7 -8 -8 -8 -9 -9 -9 -9 -9 -9 -9 -9 -8 -8 -8 -8 -8 -9 -9 -9
3 3 2 1 1 0 -1 -1 -2 -3 -3 -4 -5 -5 -6 -6 -7 -7 -8 -8 -8 -9 -9 -9 -9 -9 -9 -10 -9 -9 -9 -8 -8 -7 -8 -8 -8 -8
Wind_Speed
8 7 5 4 4 3 3 3 3 3 3 2 1 1 3 4 6 6 7 10 12 12 13 14 15 17 17 18 18 19 20 20 20 21 21 21 22 21
7 7 6 4 4 3 3 3 3 4 4 2 2 1 2 4 6 7 7 10 11 12 13 14 15 16 17 18 18 19 19 20 20 21 21 22 21 21
8 8 8 6 5 4 3 3 3 3 4 2 1 1 1 2 5 7 7 8 10 11 13 14 15 15 17 17 18 18 18 19 20 20 20 20 20 20
10 9 8 6 6 4 4 4 3 3 3 3 2 1 1 2 3 4 6 8 9 10 13 14 14 16 16 16 17 18 18 19 19 19 19 19 19 20
10 10 9 8 7 5 5 4 3 3 2 2 2 0 1 2 3 4 5 5 8 9 11 12 14 15 15 16 17 17 17 18 18 18 18 19 19 20
9 9 9 9 8 8 6 5 4 3 2 2 1 0 1 2 2 3 5 5 5 6 10 11 13 15 15 16 16 16 17 17 18 18 19 19 19 19
8 7 7 8 9 7 6 6 5 4 3 2 1 0 1 2 2 2 3 5 5 3 6 7 8 8 11 14 15 16 17 18 18 18 19 19 19 19
9 7 7 7 9 9 9 8 7 5 4 3 2 1 2 1 1 2 2 4 4 3 4 6 4 5 8 10 14 16 17 17 18 18 19 19 19 19
10 9 7 7 9 7 8 8 6 5 5 5 3 2 1 1 0 1 2 2 3 4 4 4 3 5 8 11 15 15 17 18 18 19 19 19 19 19
10 10 10 9 8 9 8 7 5 4 4 4 3 2 1 1 1 0 1 3 3 3 2 3 4 6 8 10 12 15 17 18 19 19 19 19 19 19
8 9 10 9 13 14 10 8 6 4 6 7 6 5 5 4 4 3 3 3 3 3 2 3 4 7 5 4 9 15 18 19 19 19 19 19 19 18
7 8 11 11 14 14 9 8 7 4 4 5 5 5 6 6 6 3 1 1 2 3 2 3 3 5 5 4 5 11 13 17 19 18 18 19 19 13
8 7 7 14 14 13 10 7 8 8 5 4 3 3 3 3 4 4 2 1 1 3 3 3 3 3 4 6 6 6 8 10 12 13 16 20 19 14
9 7 8 15 14 13 9 9 12 9 5 4 3 2 2 2 2 4 4 3 2 5 6 3 2 3 4 6 6 6 7 9 8 8 11 17 17 17
9 14 15 16 14 10 11 12 10 6 5 3 2 1 0 1 1 2 4 5 5 5 5 5 3 4 4 5 6 6 6 6 6 7 9 10 9 9
11 14 16 15 11 10 9 7 5 4 4 3 2 1 1 1 1 2 2 3 3 4 6 8 7 5 4 6 6 7 6 6 8 10 10 9 9 9
13 9 7 7 6 5 5 5 4 4 3 2 2 2 1 1 2 2 2 2 2 4 6 5 9 9 8 6 5 6 7 7 8 9 10 11 9 7
13 9 8 7 7 7 6 5 3 3 3 3 2 2 1 1 1 2 2 2 3 3 4 5 6 6 5 4 6 6 6 6 8 9 8 9 9 8
9 9 8 8 7 6 6 5 3 3 3 3 2 2 1 1 1 2 2 3 3 4 4 4 4 5 6 8 6 5 5 8 9 9 7 7 8 11
7 9 8 8 7 7 6 5 4 4 3 3 2 2 1 1 1 1 2 2 3 4 4 4 4 4 4 5 5 7 11 9 8 9 8 8 8 11
8 8 8 8 7 7 6 5 5 4 4 3 2 2 1 1 0 1 2 4 3 3 5 5 6 10 4 3 5 6 7 12 11 8 7 8 6 5
8 8 8 8 7 7 6 6 5 4 4 3 2 2 1 1 1 1 1 2 3 3 4 5 6 5 2 3 6 7 7 9 13 14 9 7 5 5
9 8 8 8 7 7 6 6 6 5 4 4 3 2 2 1 1 1 1 2 2 3 4 5 5 4 3 3 4 5 8 9 7 8 7 13 14 13
Wind_Direction
190 188 190 192 183 185 175 172 184 249 275 269 292 343 348 347 346 348 333 333 334 331 331 332 333 332 330 330 328 326 325 324 324 323 322 321 321 322
184 184 190 186 177 174 176 175 182 196 242 257 240 295 356 354 353 348 335 339 335 332 332 333 333 333 333 332 329 327 327 327 327 326 323 323 324 325
181 184 190 180 177 178 170 170 182 182 225 260 245 329 358 348 346 347 342 338 334 332 334 334 334 335 335 333 333 333 331 330 328 327 327 328 328 327
184 182 187 177 179 173 171 178 186 186 196 237 252 280 312 336 335 336 342 339 330 331 338 338 339 339 338 336 335 334 333 332 332 333 332 330 330 329
182 183 183 174 182 175 170 174 179 168 173 194 230 248 321 348 341 335 334 332 335 335 341 340 339 341 341 339 338 339 340 338 336 335 334 334 333 331
178 179 177 179 183 176 172 173 161 151 148 159 197 283 303 337 338 331 333 335 328 332 340 337 339 345 344 342 341 340 340 339 338 337 336 335 334 332
165 167 170 169 169 165 162 165 157 152 145 146 156 21 302 335 328 320 319 326 318 332 332 325 326 333 338 339 338 338 339 339 338 336 335 334 334 333
161 155 151 150 152 151 151 152 152 151 160 155 168 221 264 281 293 328 324 339 319 333 332 314 324 324 329 330 332 338 340 340 339 337 335 335 334 332
159 155 150 149 143 137 134 127 125 123 136 149 160 198 229 240 259 319 314 309 287 305 329 303 317 319 323 327 332 340 343 341 339 336 335 334 332 331
156 157 153 151 150 139 127 117 106 97 108 111 137 156 154 152 137 344 277 307 291 299 340 303 313 315 318 319 328 341 343 341 338 336 334 332 331 331
146 150 150 151 151 141 134 128 115 95 91 99 97 91 80 72 68 59 21 7 334 317 354 324 312 318 308 300 319 333 338 338 337 336 335 334 332 333
138 144 150 150 151 147 142 141 138 134 115 94 77 66 55 51 48 56 70 18 332 306 325 334 316 332 321 301 306 318 325 331 335 335 335 335 334 333
148 148 152 151 149 148 142 143 145 137 124 112 96 74 54 40 26 22 31 147 226 266 296 334 310 318 296 305 308 307 316 321 325 326 333 334 334 333
152 150 149 148 144 141 136 134 131 125 118 112 102 78 47 15 357 357 357 341 267 253 277 287 270 291 303 304 299 308 315 314 318 321 326 330 332 332
143 145 143 142 137 132 131 133 129 123 124 123 120 99 13 323 357 0 360 355 340 318 307 296 275 280 275 277 291 302 315 315 321 324 323 324 320 320
129 135 134 130 121 124 127 123 116 129 132 135 130 111 72 41 31 9 356 351 348 329 324 321 309 287 279 276 276 289 298 302 317 323 322 317 314 311
132 123 123 127 124 120 115 114 114 118 116 114 117 113 78 41 14 7 6 1 347 322 323 324 326 309 272 263 281 287 299 306 309 320 323 320 313 308
135 142 146 147 148 149 145 138 131 134 132 126 124 122 106 54 4 357 0 354 330 317 317 319 335 341 337 298 241 275 296 304 314 318 317 317 314 314
138 149 154 156 154 153 153 152 154 147 139 135 134 128 108 68 19 355 350 342 329 321 317 321 340 353 348 334 311 286 299 314 318 318 313 309 303 305
145 153 157 157 155 156 156 153 147 143 142 142 139 135 124 96 20 342 335 325 324 325 325 326 332 333 319 305 300 299 306 309 314 315 313 309 295 295
155 155 155 155 155 154 153 151 152 157 153 149 148 148 147 125 360 316 317 327 340 327 324 317 306 320 301 295 304 304 305 318 320 311 310 316 315 314
157 156 155 152 153 153 152 151 151 154 152 150 156 160 163 162 206 281 306 318 317 311 305 304 314 330 342 325 316 312 313 320 327 330 323 312 316 321
157 155 153 152 151 150 150 153 155 159 159 159 163 168 167 172 224 267 288 307 320 324 325 325 333 338 323 301 307 310 315 324 327 332 326 332 330 316
Height
1513 1515 1516 1517 1518 1519 1519 1519 1519 1517 1515 1514 1512 1510 1508 1506 1503 1501 1498 1495 1492 1488 1485 1481 1478 1474 1470 1466 1463 1460 1456 1453 1449 1446 1443 1439 1436 1433
1508 1510 1511 1513 1514 1514 1515 1515 1514 1514 1511 1510 1508 1507 1505 1502 1500 1497 1494 1491 1487 1484 1480 1477 1473 1469 1465 1462 1458 1455 1451 1448 1445 1441 1438 1435 1431 1428
1502 1504 1506 1508 1509 1510 1510 1510 1510 1509 1507 1506 1505 1503 1501 1499 1496 1493 1490 1486 1483 1480 1476 1472 1468 1464 1461 1457 1454 1450 1447 1443 1440 1436 1433 1430 1427 1424
1497 1499 1501 1503 1504 1505 1505 1505 1505 1504 1503 1502 1500 1499 1497 1494 1492 1489 1486 1483 1479 1475 1472 1468 1464 1460 1456 1453 1449 1446 1442 1439 1435 1432 1429 1426 1423 1420
1492 1494 1496 1498 1499 1500 1500 1501 1500 1500 1499 1498 1496 1495 1493 1491 1488 1486 1483 1479 1475 1472 1468 1464 1460 1456 1452 1448 1445 1442 1438 1435 1432 1429 1425 1422 1419 1416
1487 1489 1491 1493 1494 1495 1496 1496 1496 1495 1495 1494 1492 1490 1489 1487 1484 1481 1478 1475 1472 1468 1465 1461 1457 1453 1449 1445 1441 1438 1435 1431 1428 1425 1422 1419 1416 1413
1482 1484 1486 1488 1490 1491 1491 1491 1491 1491 1490 1489 1488 1487 1485 1483 1480 1477 1474 1471 1468 1465 1461 1458 1454 1449 1445 1441 1438 1435 1431 1428 1425 1422 1418 1415 1412 1409
1477 1480 1482 1484 1485 1486 1487 1487 1488 1487 1486 1486 1484 1483 1481 1479 1477 1474 1471 1467 1463 1461 1458 1454 1451 1446 1442 1438 1435 1432 1428 1425 1421 1418 1415 1412 1409 1406
1472 1475 1477 1479 1481 1482 1483 1483 1483 1483 1483 1483 1481 1480 1478 1476 1474 1471 1468 1465 1462 1458 1454 1450 1447 1443 1440 1436 1432 1429 1425 1422 1418 1414 1411 1408 1405 1402
1468 1471 1473 1475 1477 1478 1479 1479 1480 1480 1479 1479 1478 1477 1475 1473 1471 1469 1466 1463 1460 1456 1452 1448 1444 1440 1437 1434 1430 1426 1422 1418 1415 1411 1407 1404 1401 1398
1464 1467 1469 1471 1473 1474 1475 1476 1476 1476 1476 1476 1475 1474 1472 1471 1469 1466 1463 1460 1456 1453 1450 1446 1441 1436 1433 1431 1428 1424 1420 1416 1412 1408 1404 1401 1398 1394
1460 1463 1465 1467 1469 1470 1472 1472 1473 1473 1473 1473 1473 1472 1470 1468 1466 1464 1461 1457 1454 1451 1448 1445 1440 1436 1430 1427 1425 1422 1417 1413 1409 1405 1401 1398 1394 1391
1456 1459 1461 1463 1465 1467 1468 1469 1470 1470 1470 1470 1470 1469 1467 1466 1464 1461 1459 1456 1453 1450 1447 1443 1439 1435 1432 1426 1421 1419 1415 1410 1406 1403 1399 1395 1391 1388
1453 1456 1458 1461 1463 1464 1465 1466 1467 1467 1468 1467 1467 1466 1465 1463 1462 1459 1457 1455 1452 1449 1446 1443 1439 1435 1430 1424 1419 1416 1413 1409 1404 1400 1396 1392 1389 1386
1450 1453 1455 1458 1460 1461 1463 1464 1464 1465 1465 1465 1464 1464 1463 1461 1459 1458 1455 1453 1451 1448 1445 1441 1438 1434 1429 1424 1419 1414 1410 1406 1403 1398 1394 1390 1386 1383
1447 1450 1452 1455 1457 1458 1460 1461 1462 1462 1463 1463 1462 1462 1460 1459 1457 1455 1453 1451 1448 1446 1443 1440 1436 1432 1427 1423 1419 1414 1410 1406 1401 1396 1392 1388 1385 1382
1443 1446 1449 1451 1453 1455 1457 1458 1459 1460 1460 1460 1460 1459 1458 1457 1456 1454 1452 1449 1447 1443 1440 1437 1434 1430 1426 1422 1417 1413 1409 1404 1400 1395 1390 1386 1383 1380
1440 1443 1446 1448 1450 1452 1454 1455 1457 1457 1458 1458 1458 1457 1456 1455 1454 1452 1450 1448 1445 1442 1439 1435 1430 1426 1423 1419 1417 1411 1407 1403 1399 1395 1390 1385 1381 1379
1437 1440 1443 1445 1448 1450 1452 1453 1454 1455 1456 1456 1455 1455 1454 1453 1452 1450 1448 1446 1444 1441 1438 1434 1430 1426 1421 1418 1415 1412 1407 1401 1397 1393 1389 1385 1381 1377
1434 1437 1440 1443 1445 1447 1449 1451 1452 1453 1453 1453 1453 1453 1452 1451 1450 1448 1447 1445 1442 1440 1437 1434 1430 1427 1423 1420 1415 1411 1408 1401 1396 1391 1388 1384 1380 1377
1430 1434 1437 1440 1443 1445 1447 1448 1449 1450 1451 1451 1451 1451 1450 1449 1448 1447 1445 1443 1441 1439 1436 1433 1430 1427 1424 1420 1415 1411 1407 1403 1397 1392 1387 1382 1378 1374
1427 1431 1434 1437 1440 1442 1444 1446 1447 1448 1448 1449 1449 1448 1448 1447 1446 1445 1444 1442 1440 1438 1435 1433 1430 1426 1423 1419 1414 1410 1405 1402 1398 1394 1389 1385 1381 1375
1424 1428 1431 1434 1437 1439 1441 1443 1444 1445 1446 1446 1446 1446 1446 1446 1445 1444 1442 1441 1439 1437 1434 1431 1428 1425 1422 1418 1415 1410 1406 1401 1397 1393 1390 1386 1382 1378